Powrót do katalogu

STARLINK-5336

AktywnyŁącznośćVLEO
NORAD 57138·PAYLOAD·🇺🇸 United States

Wystrzelony Jun 23, 2023 z Cape Canaveral Space Force Station

Loading…

Następne Przeloty (najbliższe 24 godziny)

TLE

ŚwieżeSource: CelesTrak SupGP

Epoka: Sep 15, 2026, 02:04 UTC

1 57138C 23090AP  26258.08659722  .00003037  00000+0  10998-3 0  2580
2 57138  43.0036 273.5606 0001446 292.3492 340.0957 15.27579927    10

Śledź STARLINK-5336 w czasie rzeczywistym z AllMySat

Download on the App Store